Dewpoint
-1 4 9 6 9 10 10 10 10 10 9 10 9 9 8 7 4 -9 -20 -29 -30 -30 -32 -33 -31 -29 -29 -8 -16 -12 -18 -13 -8 -8 -11 -12 -13 -14 -15 -16 -15 -14 -16 -15 -13 -15 -16
-4 -3 -1 6 7 8 7 9 10 9 9 9 9 10 9 8 6 -1 -14 -26 -28 -30 -32 -31 -29 -28 -7 -12 -12 -14 -7 -7 -8 -10 -10 -10 -12 -11 -14 -14 -15 -15 -14 -15 -16 -16 -16
-4 -3 -3 -2 2 6 8 7 9 8 8 8 8 9 9 9 9 4 -15 -22 -27 -30 -31 -28 -26 -25 -7 -10 -7 -5 -8 -10 -10 -10 -11 -9 -10 -11 -11 -13 -12 -12 -12 -14 -16 -16 -17
3 1 -2 -3 -2 -0 7 5 8 5 7 7 6 8 8 8 8 8 -9 -22 -25 -30 -30 -25 -21 -8 -9 -8 -6 -8 -9 -10 -10 -10 -10 -10 -9 -9 -10 -10 -11 -11 -11 -10 -14 -15 -15
-0 3 3 3 -1 -1 0 6 5 7 7 7 5 8 8 8 8 8 -7 -22 -26 -28 -26 -22 -10 -2 -10 -10 -9 -10 -10 -11 -11 -9 -9 -10 -9 -9 -9 -8 -11 -12 -11 -12 -15 -17 -15
-5 -2 1 3 3 -0 -1 0 2 5 6 6 6 7 6 7 7 7 -9 -23 -21 -21 -12 -8 -3 -4 -7 -9 -10 -10 -10 -10 -10 -9 -9 -9 -10 -9 -10 -11 -10 -12 -13 -14 -15 -16 -15
-8 -10 -2 2 3 3 -1 -1 -0 -0 0 1 4 7 7 6 7 7 -8 -17 -5 -2 -2 -7 -9 -11 -9 -9 -9 -11 -11 -9 -9 -9 -9 -10 -9 -11 -11 -10 -11 -12 -12 -12 -14 -15 -12
-4 -6 -9 -6 -4 2 2 -4 -2 -2 -2 -2 1 6 6 5 7 6 -2 -8 -7 -8 -8 -7 -10 -9 -8 -10 -11 -11 -11 -10 -8 -8 -9 -7 -7 -10 -10 -9 -9 -9 -9 -9 -11 -13 -11
1 -1 -8 -11 -7 -6 -7 -5 -7 -5 -4 -3 -2 3 3 5 7 2 -5 -5 -8 -13 -8 -8 -12 -14 -9 -10 -13 -11 -11 -9 -8 -7 -8 -7 -9 -8 -7 -8 -8 -8 -8 -8 -8 -10 -11
1 0 -0 1 -2 -4 -4 -3 -3 -4 -5 -5 -2 3 5 6 4 3 -3 -5 -7 -4 1 -2 -10 -11 -8 -10 -11 -12 -10 -7 -5 -5 -7 -7 -7 -7 -7 -8 -8 -5 -7 -7 -8 -7 -8
0 -2 -2 -2 -0 -5 -4 -5 -5 -4 -4 -3 -1 5 5 5 5 0 -1 -7 -6 -2 6 -2 -8 -9 -10 -12 -9 -10 -7 -5 -5 -5 -4 -4 -6 -6 -5 -7 -7 -6 -6 -6 -6 -6 -6
-0 -2 -2 -4 -3 -6 -9 -10 -7 -7 -5 -3 -0 5 5 6 2 -1 -3 -7 -2 2 4 -5 -9 -8 -8 -10 -8 -7 -5 -4 -4 -4 -5 -5 -6 -6 -7 -7 -6 -6 -4 -4 -4 -4 -3
-2 -5 -4 -3 -1 -6 -6 -6 -4 -6 -4 -2 2 4 5 4 2 0 -2 -0 1 4 -5 -8 -9 -9 -9 -8 -7 -6 -4 -2 -3 -1 -2 -4 -4 -7 -6 -4 -5 -4 -1 1 -1 -1 -2
-3 -4 -1 1 0 -4 -7 -5 -4 0 2 3 3 4 5 3 3 -3 -1 1 4 0 -4 -11 -10 -9 -8 -7 -6 -5 -4 -3 -3 -3 -2 -3 0 -5 -6 -5 -3 -3 -2 -0 -2 -5 -4
-3 -3 -1 1 -1 -5 -5 -2 0 6 6 3 4 2 3 2 2 -2 1 4 3 -0 -3 -8 -8 -7 -5 -5 -4 -4 -4 -5 -3 -2 1 -0 -2 -6 -6 -6 -4 0 -0 -3 -2 -2 0
-3 -1 0 -0 -2 -4 0 3 6 6 5 3 1 1 0 1 1 0 2 4 2 -6 -9 -8 -5 -7 -3 -4 -0 -2 -3 -4 -1 -2 -2 -0 3 -3 -4 -3 -4 -2 -2 2 0 3 3
-3 -1 1 -0 -2 -3 3 4 6 5 3 2 1 1 -0 0 0 1 3 3 -1 -7 -8 -6 -5 -5 -3 -3 -0 -2 -3 -2 -2 -1 -2 -0 2 0 -2 -1 -0 1 2 2 -1 0 4
-3 -0 1 0 -1 0 3 5 6 4 2 2 1 -0 0 0 1 1 3 0 -7 -6 -4 -3 -5 -4 -0 -1 -0 -1 -1 -1 -3 -3 -0 -1 5 5 0 -3 -2 -1 0 2 3 2 3
-3 -1 -0 1 2 4 4 4 4 3 2 1 -1 -1 -1 -0 2 2 -1 -2 -6 -5 -4 -3 -2 -0 0 5 5 5 -1 -2 -2 -2 -0 1 4 4 2 2 -3 -2 -1 0 2 7 6
-3 -1 -0 0 1 1 0 0 1 1 2 0 -1 -0 -1 -1 0 -0 -1 -3 -5 -7 -6 -5 -3 -1 0 3 1 4 0 -2 -3 -2 -1 1 0 3 4 4 -1 0 -1 -1 1 6 8
-2 -2 -1 -0 -0 -0 -0 -0 0 1 1 0 -1 -1 -2 2 2 -1 -5 -4 -4 -5 -6 -4 -1 -2 -1 2 -1 1 -2 -2 -3 -1 -1 2 4 4 -0 -0 -1 2 1 2 4 4 5
-2 -3 -2 -1 -0 -1 -1 -1 -1 -0 -0 -1 -0 -1 -3 -2 -1 -2 -2 -2 -4 -6 -5 -4 -4 -4 -6 -4 -3 -2 -0 -1 -0 -1 1 1 5 4 5 2 -0 2 2 3 1 0 0
-2 -2 -2 -1 -1 -1 -0 -0 -0 -0 -0 -0 0 -2 -1 1 1 0 1 -2 -5 -5 -5 -6 -6 -5 -7 -8 -8 -6 -5 -3 -2 -1 1 2 3 3 5 4 2 3 2 2 -0 -1 -1
-2 -1 -1 -2 -1 -1 -1 -1 -0 -1 -1 1 1 1 -0 2 0 -0 -4 -5 -6 -5 -5 -8 -7 -6 -4 -5 -3 -3 -4 -4 -3 -2 -2 -1 0 1 5 3 5 2 -2 -2 -1 -1 -2
-1 -2 -1 -1 -2 -2 -1 -0 -0 -1 -2 0 -0 -1 -2 1 -2 -4 -6 -6 -7 -7 -6 -6 -6 -5 -5 -5 -1 0 1 0 -1 -2 -1 -2 -1 1 3 4 2 1 -0 -1 1 -0 -3
-2 -2 -2 -1 -1 -1 -1 -0 -0 -2 -2 -1 -4 -3 -3 -2 -3 -5 -6 -7 -5 -4 -4 -3 -3 -3 -4 -7 -2 -4 -2 -5 -1 -0 -2 -2 -1 2 1 2 4 1 -3 -3 -3 1 -4
-2 -2 -3 -3 -2 -1 -1 -1 -1 -2 -4 -2 -5 -3 -2 -4 -6 -7 -6 -5 -7 -6 -5 -4 -4 -4 -4 -6 -2 -5 -4 -5 -1 -1 1 0 -1 1 2 2 1 -3 -2 -2 2 2 -4
-2 -4 -4 -5 -3 -2 -1 -1 -2 -2 -4 -0 -4 -1 -2 -3 -2 -3 -4 -5 -6 -8 -4 -5 -4 -4 -5 -4 -6 -4 -3 -2 -1 -4 -3 -2 -1 1 0 1 4 -3 -1 1 -1 -4 -5
-2 -3 -3 -7 -4 -3 -3 -3 -2 -3 -5 -4 -4 -2 -2 -3 -0 -1 -2 -4 -3 -5 -6 -4 -6 -8 -8 -7 -5 -5 -1 -0 -3 2 -4 -1 -3 1 0 1 -2 -2 -1 -2 -3 -4 -5
Wind_Speed
30 32 32 31 30 30 29 27 23 24 24 21 22 23 20 19 16 17 15 14 14 14 11 12 12 11 9 6 4 8 3 3 4 3 2 4 7 7 10 5 9 15 15 10 11 14 18
33 32 31 32 32 33 32 32 30 25 26 26 24 24 24 22 19 18 19 15 13 13 13 11 11 9 5 10 6 5 2 2 2 4 4 4 5 6 11 11 9 10 12 17 19 19 19
32 35 35 34 33 33 30 35 32 30 28 25 27 25 24 24 22 19 18 17 16 15 12 11 10 7 6 6 5 4 3 2 2 3 5 5 5 7 5 8 5 9 14 16 18 4 9
21 23 30 35 33 32 35 33 32 33 33 30 27 28 27 26 24 22 19 18 15 15 14 11 9 3 7 12 6 5 5 5 5 5 5 7 6 9 9 8 13 14 15 12 10 6 13
21 21 22 25 31 32 33 36 38 32 29 32 31 29 29 28 26 25 18 18 13 14 13 8 4 4 8 7 7 8 5 5 5 3 4 4 5 10 8 11 10 15 9 8 14 8 7
23 25 25 25 25 30 31 32 34 40 38 37 35 31 27 28 25 21 16 16 10 12 11 5 6 7 10 9 10 7 6 4 5 4 5 7 7 8 10 9 9 14 16 15 16 12 14
22 23 23 25 25 25 29 30 32 32 33 34 36 32 33 26 31 24 17 8 7 7 15 13 3 5 8 9 8 6 8 5 6 8 11 7 9 12 10 9 10 12 13 14 14 12 14
23 24 25 27 29 30 30 31 32 31 29 26 31 38 38 32 34 26 16 10 4 5 9 16 13 10 8 10 9 10 9 7 9 11 6 7 13 5 4 5 8 10 14 15 13 7 11
23 25 26 28 29 30 30 30 30 31 29 30 27 37 42 33 36 26 23 17 11 1 7 15 16 16 14 13 12 12 13 6 10 11 11 13 4 2 6 7 9 10 12 13 15 15 19
24 26 26 28 30 32 32 32 32 33 32 31 31 36 45 44 30 23 22 23 11 9 2 5 8 12 15 11 8 10 11 7 6 9 6 10 5 6 8 7 5 9 8 12 12 11 9
26 28 29 32 34 37 38 39 38 37 36 37 33 40 46 45 25 24 17 21 14 9 5 8 13 11 16 15 12 13 10 8 11 10 7 5 9 9 10 4 2 5 9 12 14 14 14
29 30 33 34 38 43 44 45 45 43 39 40 34 45 46 41 21 22 20 28 17 4 5 6 8 15 17 16 11 10 9 8 4 9 13 14 4 5 9 3 5 9 12 15 11 8 8
30 34 35 38 41 47 51 51 49 50 51 48 37 54 51 43 31 27 28 24 5 5 8 11 11 15 17 11 12 12 12 13 10 8 14 14 13 6 8 9 9 7 11 5 6 7 10
32 34 36 36 44 52 53 50 52 47 49 44 40 61 51 44 33 38 32 6 5 11 10 5 10 14 19 15 13 12 11 15 10 11 5 8 7 15 12 8 5 6 5 6 6 7 12
32 32 34 39 48 52 53 52 43 38 42 43 54 56 53 41 36 47 27 4 11 16 13 9 15 16 12 12 3 12 16 16 10 10 6 5 5 8 7 7 5 3 6 7 8 16 10
29 31 31 40 50 50 45 36 34 33 39 58 67 48 36 42 38 41 9 10 14 8 18 22 14 16 14 16 10 13 15 8 8 9 4 3 3 6 6 5 12 11 1 4 6 5 7
26 27 29 36 46 48 35 35 31 33 56 71 51 23 34 41 44 23 6 8 11 12 16 16 13 9 7 13 14 17 12 8 13 10 8 5 3 8 7 9 6 5 9 8 11 9 5
23 20 24 32 43 31 20 26 39 56 75 59 27 6 47 51 12 5 5 10 14 19 13 5 7 7 15 13 13 13 10 9 13 10 10 5 2 4 7 5 2 4 9 11 8 8 7
19 15 15 20 13 9 24 42 51 76 69 42 12 16 40 40 6 10 13 11 14 23 16 12 9 8 7 6 3 2 10 7 10 10 7 9 5 5 8 8 7 3 5 8 9 7 14
14 12 7 4 19 38 51 62 57 44 44 35 11 6 12 17 8 18 20 19 16 21 13 12 11 11 10 4 2 7 10 9 10 6 6 4 4 5 5 4 3 5 10 13 15 6 4
9 7 6 6 23 40 41 35 31 33 28 25 7 7 15 7 7 17 15 18 19 15 9 14 6 11 11 5 7 5 11 10 9 8 7 3 4 1 7 8 5 3 7 10 4 3 3
8 6 6 11 19 34 26 18 21 28 21 17 9 11 23 26 23 18 10 16 21 13 13 14 11 17 12 11 7 12 9 12 8 10 7 6 3 5 7 7 5 6 6 2 8 10 9
9 7 7 16 20 27 32 22 15 9 15 9 15 18 19 16 14 13 11 18 19 12 8 10 16 15 11 10 9 11 5 4 4 7 8 7 5 6 3 11 8 5 3 6 6 7 3
9 10 10 12 23 26 25 20 15 14 15 12 21 17 16 11 13 13 21 23 20 16 11 15 20 11 9 9 9 7 5 6 5 5 2 6 6 3 5 9 5 6 7 7 9 7 10
13 11 13 14 17 24 27 15 15 14 13 16 19 14 12 13 20 17 20 18 21 12 16 18 10 10 13 10 7 8 5 5 7 8 7 5 4 4 4 7 6 8 8 7 5 4 3
15 14 12 16 20 20 19 15 12 13 19 19 10 10 20 13 14 21 19 24 15 14 13 8 8 8 7 5 5 7 6 8 7 5 6 6 5 4 4 5 5 10 11 5 4 6 9
20 16 13 11 15 19 14 12 7 7 10 9 8 13 13 10 19 24 15 19 15 13 7 13 9 5 4 6 7 6 5 2 7 8 7 8 8 8 7 6 5 7 12 9 5 5 10
25 19 13 16 17 20 22 10 4 4 6 8 13 16 11 18 14 10 10 13 11 12 8 17 7 3 5 7 7 4 3 5 3 3 3 5 4 4 3 4 4 7 9 4 8 15 14
28 19 14 19 17 16 15 11 9 8 7 10 9 16 16 13 17 17 15 12 7 4 10 18 1 18 9 6 3 3 2 2 8 4 3 3 3 3 5 3 4 4 6 12 13 15 14
Wind_Direction
257 257 258 265 262 259 260 263 263 267 266 267 271 277 284 290 292 292 290 295 303 308 313 320 323 329 343 281 276 286 314 9 15 313 282 289 281 286 261 292 281 259 266 288 284 277 276
257 256 255 252 256 259 256 257 266 261 261 266 275 270 277 282 287 287 289 289 295 299 305 313 313 321 320 269 252 266 305 354 315 303 297 295 293 296 283 280 274 332 288 281 280 278 278
259 257 254 253 254 253 253 259 260 261 262 271 269 273 278 281 280 281 282 285 293 293 296 301 303 304 264 262 213 245 265 235 291 302 286 280 291 274 325 268 291 276 279 276 266 331 282
276 266 261 254 251 251 250 256 257 256 262 264 265 267 272 274 279 277 273 277 287 292 293 295 297 296 267 235 211 215 235 265 295 281 269 268 272 276 260 287 267 252 262 271 128 205 295
263 267 270 267 252 248 248 246 249 253 259 260 263 271 269 269 277 275 265 269 280 285 281 281 310 251 264 206 179 200 215 260 273 259 251 255 255 259 231 248 270 215 272 278 299 298 307
264 259 259 266 269 248 246 247 249 247 254 250 261 267 260 267 278 269 256 266 276 275 278 265 248 248 213 214 185 193 222 220 232 231 232 235 245 255 224 243 287 324 309 307 299 314 304
273 267 261 263 264 265 250 246 247 250 253 257 260 258 260 263 264 269 237 248 279 246 220 230 260 248 156 169 195 214 214 219 220 231 251 194 264 238 344 347 313 293 288 285 290 304 301
278 272 268 266 261 259 263 252 249 249 250 254 248 251 255 262 253 249 224 190 298 288 294 230 231 224 194 197 201 216 197 224 212 242 177 230 239 52 319 292 282 282 281 280 298 307 285
283 281 279 273 270 264 263 263 256 247 249 247 260 248 251 254 236 223 210 205 229 286 259 232 223 222 199 198 223 193 196 225 234 231 226 254 23 119 275 273 267 269 285 299 307 310 273
285 284 281 276 274 276 276 275 273 265 260 251 264 237 237 238 213 217 214 211 218 130 2 235 208 224 193 193 229 191 202 225 218 243 231 260 122 229 260 260 274 288 3 310 293 296 303
287 284 280 274 274 275 275 274 273 267 259 254 259 233 231 235 223 193 213 185 177 127 257 154 175 151 181 191 125 189 186 201 243 202 218 116 200 225 236 259 311 293 332 299 293 285 295
290 286 282 277 274 279 279 277 281 273 256 251 249 229 230 224 206 188 179 166 153 116 238 204 174 193 174 203 209 143 194 211 282 253 233 264 172 249 244 199 249 296 289 271 258 270 267
295 292 284 281 276 277 279 282 281 271 264 258 236 220 225 218 195 191 181 144 111 196 136 185 196 184 190 180 184 196 191 200 211 205 212 211 217 192 222 232 191 240 268 289 232 216 254
296 294 286 280 278 281 284 284 275 265 259 238 214 209 213 197 197 174 166 127 193 232 205 157 174 187 203 175 188 200 209 215 219 249 272 216 179 194 176 239 300 282 304 287 297 308 320
297 294 289 282 285 288 292 281 261 258 241 206 196 181 191 183 191 175 166 161 213 211 186 168 164 186 190 191 213 201 217 220 187 215 238 200 240 163 179 223 233 118 237 321 294 273 257
301 300 289 289 293 299 292 269 248 238 205 184 166 160 173 178 180 174 209 211 219 210 153 175 183 192 205 188 190 200 200 200 175 213 252 140 237 225 185 236 231 239 323 269 223 264 271
307 302 296 299 303 307 279 263 229 199 178 169 155 147 165 169 165 175 193 215 197 177 158 178 201 184 209 190 197 204 198 177 178 186 220 170 231 140 190 225 194 190 236 234 262 268 272
311 305 306 312 310 308 270 235 201 169 162 153 146 121 158 164 158 205 192 199 167 171 160 158 187 169 207 184 203 200 206 181 189 175 188 186 140 242 234 57 312 274 261 243 237 259 263
309 303 320 324 323 299 175 171 172 163 156 144 99 102 164 165 180 180 186 188 192 174 166 162 150 169 140 171 168 144 202 144 164 210 168 176 192 227 176 168 137 336 325 291 287 298 269
313 298 287 342 122 128 133 135 134 150 159 145 116 129 154 206 237 179 182 176 177 182 168 168 145 127 138 145 188 172 176 173 199 217 89 191 221 292 341 65 359 323 324 310 266 253 319
293 306 250 199 146 138 142 147 151 150 149 149 91 162 162 171 194 190 177 170 162 158 180 159 155 192 155 131 161 168 173 155 197 164 193 210 199 152 129 112 78 43 9 10 27 354 334
276 265 212 203 190 160 141 123 130 148 125 104 128 155 179 154 167 167 158 195 171 158 162 185 177 168 168 157 190 167 168 179 186 174 168 170 170 173 187 204 167 93 35 61 75 92 104
249 230 196 185 189 186 185 186 173 152 90 84 120 138 144 148 159 162 180 183 183 152 189 179 170 154 170 129 102 141 165 117 130 173 166 169 181 195 221 195 208 203 95 93 72 57 154
229 203 191 188 187 185 187 165 115 101 110 108 136 140 140 148 164 178 180 177 175 188 157 169 159 159 112 121 116 137 172 192 202 185 247 186 198 249 160 168 226 105 120 108 107 70 90
177 169 160 171 170 181 166 143 112 105 112 136 151 150 137 152 169 182 179 175 163 157 153 145 122 122 146 149 155 144 159 169 193 201 197 236 281 246 233 218 109 166 190 177 201 126 141
166 165 154 153 161 166 184 155 116 103 129 155 199 174 152 147 183 176 171 158 158 144 132 132 125 130 154 187 217 201 180 204 159 169 214 200 246 268 246 249 216 102 133 145 150 180 169
169 170 168 173 176 182 173 177 144 116 144 138 178 157 181 144 149 164 163 167 163 165 146 146 145 148 185 198 201 214 181 299 171 198 169 211 221 238 257 253 106 127 140 144 205 115 152
174 173 181 183 182 180 182 180 202 142 140 129 151 134 139 118 95 125 130 135 152 171 159 137 137 191 193 202 208 177 251 183 195 49 196 218 218 201 243 250 177 150 149 222 115 130 133
170 179 184 178 177 168 183 195 169 168 149 137 132 131 139 126 118 109 107 109 96 119 138 174 313 164 178 209 247 138 204 136 221 187 179 218 329 13 8 47 114 127 106 127 138 136 137
Height
1508 1510 1512 1513 1515 1517 1519 1520 1520 1522 1524 1524 1524 1526 1526 1526 1526 1527 1525 1525 1525 1523 1520 1519 1519 1518 1518 1520 1517 1513 1512 1512 1512 1514 1513 1512 1509 1507 1500 1499 1499 1497 1494 1494 1495 1496 1496
1501 1502 1504 1506 1508 1511 1512 1514 1515 1516 1519 1520 1520 1521 1522 1523 1523 1524 1525 1523 1523 1521 1520 1518 1517 1516 1517 1518 1513 1513 1513 1513 1515 1515 1513 1511 1509 1508 1505 1501 1499 1495 1497 1495 1492 1490 1490
1493 1494 1496 1499 1501 1504 1506 1507 1509 1511 1513 1515 1516 1517 1518 1519 1520 1521 1523 1522 1522 1520 1517 1516 1516 1514 1514 1514 1513 1514 1512 1514 1513 1513 1512 1511 1510 1508 1504 1497 1498 1499 1495 1488 1482 1486 1489
1487 1487 1488 1491 1493 1497 1499 1502 1503 1505 1506 1509 1511 1513 1515 1516 1516 1518 1519 1520 1519 1518 1516 1515 1514 1514 1510 1507 1510 1511 1513 1513 1511 1510 1510 1509 1509 1507 1504 1500 1497 1492 1486 1481 1477 1484 1486
1480 1484 1484 1484 1486 1488 1491 1494 1497 1499 1500 1503 1506 1508 1511 1512 1512 1514 1516 1518 1515 1516 1515 1513 1514 1515 1508 1506 1507 1509 1510 1511 1511 1510 1508 1508 1508 1504 1500 1496 1484 1471 1476 1472 1471 1473 1479
1474 1477 1478 1479 1480 1481 1483 1486 1490 1492 1495 1494 1498 1502 1506 1508 1511 1511 1513 1515 1513 1514 1515 1512 1512 1517 1507 1505 1506 1507 1508 1507 1509 1509 1508 1507 1503 1498 1490 1485 1480 1478 1478 1475 1475 1473 1475
1468 1470 1471 1472 1474 1475 1476 1478 1482 1484 1486 1489 1490 1493 1501 1502 1506 1509 1512 1514 1518 1514 1510 1507 1502 1502 1502 1504 1505 1506 1507 1507 1506 1506 1500 1500 1497 1484 1477 1485 1489 1489 1487 1482 1474 1473 1477
1462 1462 1463 1465 1466 1468 1469 1470 1472 1476 1480 1483 1485 1487 1493 1498 1501 1504 1509 1511 1512 1513 1505 1501 1502 1499 1501 1502 1502 1503 1505 1506 1503 1496 1496 1498 1489 1483 1492 1492 1492 1489 1486 1479 1472 1471 1475
1457 1456 1456 1455 1458 1459 1460 1463 1464 1468 1473 1477 1481 1481 1485 1492 1494 1497 1501 1508 1508 1509 1512 1498 1496 1497 1498 1501 1497 1496 1501 1500 1498 1492 1491 1487 1480 1493 1493 1488 1486 1480 1480 1478 1479 1475 1471
1450 1449 1449 1448 1448 1451 1452 1453 1455 1460 1463 1467 1473 1475 1477 1486 1492 1493 1499 1504 1509 1510 1516 1492 1493 1490 1495 1495 1495 1495 1497 1499 1497 1490 1489 1486 1482 1490 1489 1486 1485 1483 1479 1483 1481 1477 1467
1443 1441 1440 1440 1440 1440 1441 1442 1443 1450 1452 1459 1463 1467 1467 1474 1484 1487 1492 1499 1507 1512 1496 1481 1487 1482 1490 1493 1488 1492 1496 1496 1490 1488 1493 1476 1483 1485 1485 1481 1486 1481 1483 1482 1479 1474 1465
1435 1433 1430 1429 1429 1428 1428 1429 1431 1435 1440 1448 1452 1456 1462 1476 1480 1482 1487 1495 1507 1518 1491 1485 1485 1482 1482 1486 1488 1489 1493 1494 1491 1490 1486 1480 1482 1485 1481 1484 1486 1484 1481 1472 1469 1464 1461
1426 1425 1421 1419 1417 1416 1413 1415 1415 1417 1422 1433 1440 1444 1452 1466 1471 1476 1485 1494 1509 1499 1476 1478 1481 1477 1474 1479 1483 1484 1486 1487 1481 1487 1480 1474 1476 1480 1484 1482 1480 1482 1472 1469 1464 1459 1452
1419 1416 1412 1408 1404 1400 1397 1396 1394 1396 1401 1416 1428 1435 1449 1459 1462 1472 1486 1483 1490 1460 1464 1466 1469 1475 1475 1476 1473 1479 1478 1474 1479 1476 1465 1465 1475 1473 1477 1476 1473 1472 1473 1472 1470 1452 1446
1411 1406 1399 1396 1389 1383 1378 1374 1372 1377 1385 1404 1423 1431 1441 1449 1455 1468 1474 1465 1457 1452 1461 1466 1476 1476 1475 1476 1476 1477 1474 1468 1470 1479 1476 1470 1466 1466 1471 1474 1477 1474 1474 1466 1471 1463 1461
1402 1398 1390 1384 1374 1367 1359 1355 1356 1363 1373 1390 1402 1421 1434 1443 1455 1468 1470 1450 1447 1446 1447 1459 1464 1465 1474 1470 1480 1477 1469 1464 1476 1480 1477 1474 1477 1467 1465 1474 1471 1471 1472 1477 1473 1471 1458
1396 1391 1384 1376 1363 1353 1345 1341 1346 1351 1365 1380 1402 1420 1432 1444 1456 1463 1453 1451 1445 1452 1452 1458 1457 1462 1467 1469 1475 1471 1463 1471 1475 1478 1477 1478 1478 1466 1468 1465 1462 1470 1473 1476 1466 1461 1462
1392 1388 1380 1369 1354 1343 1330 1328 1338 1346 1365 1385 1398 1417 1431 1439 1453 1452 1448 1436 1440 1451 1458 1459 1453 1458 1473 1473 1473 1465 1463 1471 1473 1473 1476 1478 1484 1478 1461 1456 1461 1463 1467 1471 1467 1458 1454
1389 1385 1379 1371 1357 1343 1333 1333 1338 1350 1363 1376 1398 1416 1435 1441 1435 1441 1440 1440 1440 1448 1450 1454 1458 1471 1470 1478 1479 1479 1466 1472 1475 1476 1471 1476 1481 1463 1461 1463 1461 1465 1468 1470 1472 1474 1462
1386 1383 1380 1376 1368 1361 1356 1354 1359 1365 1372 1375 1397 1416 1432 1435 1435 1432 1430 1435 1439 1444 1445 1452 1456 1468 1471 1478 1479 1481 1471 1476 1479 1475 1478 1479 1467 1467 1458 1473 1475 1479 1478 1475 1467 1470 1466
1384 1383 1381 1379 1376 1369 1366 1365 1367 1369 1373 1379 1390 1401 1407 1422 1430 1428 1428 1431 1432 1439 1447 1452 1459 1459 1459 1472 1470 1475 1467 1474 1478 1478 1477 1477 1475 1478 1473 1476 1481 1491 1487 1483 1473 1474 1472
1382 1382 1380 1379 1379 1377 1373 1370 1371 1374 1377 1381 1391 1396 1408 1416 1425 1429 1430 1434 1432 1438 1444 1448 1448 1449 1453 1458 1459 1466 1469 1467 1467 1471 1474 1475 1479 1484 1484 1481 1481 1490 1489 1487 1483 1484 1488
1380 1379 1378 1379 1379 1380 1380 1378 1377 1379 1381 1384 1390 1397 1404 1416 1423 1427 1431 1435 1435 1440 1444 1445 1446 1449 1452 1455 1456 1461 1463 1464 1464 1464 1466 1471 1471 1471 1463 1478 1475 1475 1491 1488 1487 1484 1483
1378 1378 1377 1377 1379 1381 1383 1386 1386 1387 1388 1391 1395 1398 1401 1414 1422 1424 1426 1430 1432 1438 1439 1442 1448 1448 1457 1460 1463 1467 1468 1468 1468 1466 1466 1463 1465 1466 1463 1469 1466 1489 1488 1487 1491 1494 1494
1377 1377 1377 1378 1379 1382 1386 1387 1389 1390 1392 1396 1398 1403 1404 1412 1417 1420 1421 1424 1433 1439 1441 1445 1450 1453 1457 1459 1458 1461 1464 1465 1464 1463 1466 1465 1463 1460 1458 1455 1483 1489 1487 1486 1485 1496 1497
1376 1378 1379 1380 1382 1385 1387 1389 1391 1392 1396 1399 1399 1400 1403 1409 1415 1417 1420 1426 1432 1436 1446 1452 1455 1455 1457 1456 1453 1450 1450 1446 1454 1463 1464 1463 1465 1465 1452 1452 1454 1464 1476 1483 1484 1484 1494
1376 1379 1381 1384 1384 1386 1389 1391 1393 1396 1399 1400 1401 1401 1403 1403 1409 1415 1419 1426 1430 1436 1439 1448 1453 1456 1458 1453 1452 1445 1442 1441 1447 1450 1460 1462 1457 1459 1454 1450 1467 1474 1481 1486 1483 1488 1493
1376 1380 1382 1385 1386 1389 1391 1394 1396 1397 1400 1401 1403 1403 1407 1411 1418 1422 1426 1429 1431 1433 1437 1445 1453 1455 1457 1452 1446 1445 1442 1448 1449 1446 1452 1452 1452 1459 1455 1451 1460 1481 1486 1483 1488 1491 1494
1374 1378 1381 1384 1387 1390 1393 1396 1399 1401 1401 1402 1405 1407 1410 1415 1424 1427 1428 1431 1433 1436 1437 1445 1444 1446 1449 1445 1444 1442 1449 1450 1443 1455 1459 1457 1456 1457 1468 1476 1486 1485 1485 1487 1490 1492 1496